Location: LDNL
(36.4545°S, 141.6685°E)
Time: 17:57:25
(UTC+10:00)

Tiros 1 despin weight - Pass Details

Date: 26 January 2022
Orbit: 592 x 639 km, 48.2° (Epoch: 28 May)

Event Time Altitude Azimuth Distance (km) Brightness Sun altitude
Exits shadow 04:15:35 15° 48° (NE) 1,686 ? -24.3°
Maximum altitude 04:15:42 15° 50° (NE) 1,685 ? -24.3°
Drops below altitude 10° 04:18:17 10° 85° (E) 1,990 ? -24.0°
Sets 04:21:27 0° 107° (ESE) 2,892 ? -23.6°
